Location: El Azufral
(10.3513°N, 67.1528°W)
Time: 09:40:44
(UTC+00:00)

YAOGAN 1 - Pass Details

Date: 13 June 2024
Orbit: 611 x 613 km, 97.8° (Epoch: 19 July)

Event Time Altitude Azimuth Distance (km) Brightness Sun altitude
Rises 23:30:05 0° 168° (SSE) 2,871 5.6 -9.6°
Reaches altitude 10° 23:32:16 10° 167° (SSE) 1,966 4.8 -10.1°
Maximum altitude 23:36:33 86° 81° (E) 618 2.5 -11.1°
Drops below altitude 10° 23:40:50 10° 350° (N) 1,966 5.7 -12.0°
Sets 23:43:00 0° 349° (N) 2,870 6.6 -12.5°
